Eureka, Nunavut

8:05 AM CDT on July 27, 2016 (GMT -0500)
Eureka

Weather History for CWEU - October, 2013

Change the Weather History Date:

Tuesday, October 8, 2013

  Actual Average Record
Temperature  
Mean Temperature -1 °F -  
Max Temperature 6 °F -6 °F 32 °F (2008)
Min Temperature -8 °F -20 °F -20 °F (2000)
Degree Days  
Heating Degree Days 66    
Moisture  
Dew Point -4 °F    
Average Humidity 75    
Maximum Humidity 85    
Minimum Humidity 62    
Precipitation  
Precipitation 0.01 in 0.01 in - ()
Sea Level Pressure  
Sea Level Pressure 30.29 in    
Wind  
Wind Speed 4 mph ()    
Max Wind Speed 9 mph    
Max Gust Speed -    
Visibility 9.4 miles    
Events Snow    
Averages and records for this station are not official NWS values.
T = Trace of Precipitation, MM = Missing Value Source: Averaged Metar Reports

Daily Weather History Graph

Daily Weather History Graph

Search for Another Location

Airport or City:

Trip Planner

Search our weather history database for the weather conditions in past years. The results will help you decide how hot, cold, wet, or windy it might be!

Date:

Astronomy

Oct. 08, 2013 Rise Set
Actual Time 8:36 AM CDT 4:22 PM CDT
Civil Twilight 6:30 AM CDT 6:27 PM CDT
Nautical Twilight 4:01 AM CDT 8:52 PM CDT
Astronomical Twilight Sun does not set Sun does not set
Moon No Moon Rise No Moon Set
Length of Visible Light 11h 57m
Length of Day
7h 46m
Waxing Crescent, 16% of the Moon is Illuminated
Oct 8
Waxing Crescent
Oct 11
First Quarter
Oct 18
Full
Oct 26
Last Quarter
Nov 3
New

Hourly Weather History & Observations

Time (CDT) Temp. Windchill Dew Point Humidity Pressure Visibility Wind Dir Wind Speed Gust Speed Precip Events Conditions
12:00 AM -5.8 °F - -11.2 °F 77% 30.27 in 15.0 mi SE 2.3 mph - N/A   Partly Cloudy
1:00 AM -3 °F - -9 °F 62% 30.27 in 15 mi SSE 3.5 mph - -   Scattered Clouds
1:00 AM -2.2 °F -10.4 °F -9.4 °F 71% 30.27 in 15.0 mi SE 3.5 mph - N/A   Partly Cloudy
2:00 AM -4.0 °F - -9.4 °F 78% 30.28 in 15.0 mi Calm Calm - N/A   Clear
3:00 AM -2.2 °F -10.4 °F -9.4 °F 71% 30.28 in 15.0 mi SE 3.5 mph - N/A   Clear
4:00 AM -4.0 °F -16.3 °F -9.4 °F 78% 30.28 in 15.0 mi SSE 5.8 mph - N/A   Partly Cloudy
5:00 AM -0.4 °F -12.0 °F -5.8 °F 78% 30.29 in 15.0 mi SSE 5.8 mph - N/A   Scattered Clouds
6:00 AM 1.4 °F -9.9 °F -5.8 °F 72% 30.28 in 15.0 mi SE 5.8 mph - N/A   Mostly Cloudy
7:00 AM 1 °F - -5 °F 66% 30.29 in 10 mi SE 6.9 mph - -   Mostly Cloudy
7:00 AM 1.4 °F -11.3 °F -4.0 °F 78% 30.29 in 10.0 mi SE 6.9 mph - N/A   Mostly Cloudy
8:00 AM 3.2 °F -9.1 °F -2.2 °F 78% 30.30 in 10.0 mi SSE 6.9 mph - N/A Snow Light Snow Grains
8:35 AM - - - N/A% - 5.0 mi SSE 6.9 mph - N/A Snow Light Snow Grains
9:00 AM 5.0 °F -6.9 °F -0.4 °F 78% 30.29 in 3.0 mi SE 6.9 mph - N/A Snow Light Snow Grains
10:00 AM 5.0 °F -9.1 °F -0.4 °F 78% 30.29 in 2.0 mi SE 9.2 mph - N/A Snow Light Snow Grains
11:00 AM 5.0 °F -8.1 °F -0.4 °F 78% 30.29 in 1.5 mi SE 8.1 mph - N/A Snow Light Snow Grains
11:22 AM - - - N/A% - 1.5 mi SE 9.2 mph - N/A   Unknown
11:45 AM - - - N/A% - 1.0 mi SE 8.1 mph - N/A   Unknown
12:00 PM 5.0 °F -8.1 °F 1.4 °F 85% 30.29 in 1.2 mi SE 8.1 mph - N/A Snow Light Snow
12:31 PM - - - N/A% - 1.5 mi SE 5.8 mph - N/A   Unknown
1:00 PM 6 °F - 1 °F 69% 30.30 in 1 mi SE 6.9 mph - - Snow Light Snow
1:00 PM 6.8 °F -5.9 °F 1.4 °F 79% 30.30 in 1.2 mi SE 8.1 mph - N/A Snow Light Snow
1:17 PM - - - N/A% - 7.0 mi SE 6.9 mph - N/A   Unknown
2:00 PM 5.0 °F -5.6 °F -2.2 °F 72% 30.30 in 10.0 mi SE 5.8 mph - N/A Snow Light Snow
3:00 PM 3.2 °F -9.1 °F -2.2 °F 78% 30.30 in 15.0 mi SSE 6.9 mph - N/A   Mostly Cloudy
3:53 PM - - - N/A% - 15.0 mi SE 5.8 mph - N/A   Unknown
4:00 PM 3.2 °F -7.8 °F -2.2 °F 78% 30.30 in 15.0 mi SE 5.8 mph - N/A Snow Light Snow
5:00 PM 5.0 °F -5.6 °F -0.4 °F 78% 30.29 in 7.0 mi SE 5.8 mph - N/A Snow Light Snow
6:00 PM 5.0 °F -4.1 °F -2.2 °F 72% 30.29 in 7.0 mi SE 4.6 mph - N/A Snow Light Snow
7:00 PM 4 °F - -2 °F 66% 30.30 in 10 mi SE 2.3 mph - - Snow Light Snow
7:00 PM 5.0 °F -2.1 °F -2.2 °F 72% 30.30 in 10.0 mi SE 3.5 mph - N/A Snow Light Snow
8:00 PM 3.2 °F - -2.2 °F 78% 30.29 in 5.0 mi Calm Calm - N/A Snow Light Snow
9:00 PM 5.0 °F - -2.2 °F 72% 30.28 in 15.0 mi ESE 2.3 mph - N/A Snow Light Snow
10:00 PM 3.2 °F - -2.2 °F 78% 30.27 in 15.0 mi Calm Calm - N/A Snow Light Snow
11:00 PM 3.2 °F - -2.2 °F 78% 30.26 in 15.0 mi Calm Calm - N/A Snow Light Snow
11:39 PM - - - N/A% - 15.0 mi West 3.5 mph - N/A   Partly Cloudy